CST,Max TemperatureF,Mean TemperatureF,Min TemperatureF,Max Dew PointF,MeanDew PointF,Min DewpointF,Max Humidity, Mean Humidity, Min Humidity, Max Sea Level PressureIn, Mean Sea Level PressureIn, Min Sea Level PressureIn, Max VisibilityMiles, Mean VisibilityMiles, Min VisibilityMiles, Max Wind SpeedMPH, Mean Wind SpeedMPH, Max Gust SpeedMPH,PrecipitationIn, CloudCover, Events, WindDirDegrees
2011-11-1,77,72,66,68,67,64,100,93,73,29.99,29.95,29.89,6,5,1,9,3,,0.00,6,Fog-Rain,234
2011-11-2,78,72,66,75,67,63,100,88,61,30.00,29.94,29.88,6,4,1,12,5,,0.00,6,Fog-Rain-Thunderstorm,223
2011-11-3,82,75,68,72,66,63,94,78,58,30.02,29.95,29.88,6,6,5,10,6,,0.00,5,Fog,108
2011-11-4,80,73,66,70,65,61,94,79,57,29.98,29.94,29.88,6,6,2,12,6,,0.00,4,Fog-Rain-Thunderstorm,82
2011-11-5,82,72,62,70,63,57,88,71,45,29.98,29.93,29.81,6,6,6,9,7,,0.00,3,,108
2011-11-6,82,74,66,70,64,59,94,76,54,30.00,29.95,29.89,6,6,5,14,8,,0.00,5,Fog-Rain,87
2011-11-7,82,74,66,70,64,59,94,74,51,30.02,29.95,29.87,6,6,4,13,7,,0.00,3,Fog,91
2011-11-8,80,72,64,68,61,57,88,68,47,30.02,29.95,29.87,6,6,6,13,6,,0.00,3,,113
2011-11-9,80,71,62,68,62,54,94,73,39,29.99,29.94,29.87,6,6,5,9,4,,0.00,4,Rain,178
2011-11-10,77,72,66,64,61,55,94,71,53,30.03,29.96,29.89,6,6,6,14,7,25,0.00,5,Rain,107
2011-11-11,77,72,66,59,57,54,73,57,47,30.07,30.00,29.94,6,6,6,21,11,,0.00,3,,89
2011-11-12,75,70,66,64,61,59,94,73,61,30.05,30.00,29.95,6,6,6,17,8,,0.00,6,Rain,84
2011-11-13,75,70,64,68,63,61,100,81,65,30.02,29.97,29.90,6,6,6,12,5,,0.00,7,Rain,84
2011-11-14,77,70,64,68,63,61,100,77,61,30.01,29.95,29.89,6,6,6,9,6,,0.00,6,,120
2011-11-15,75,70,64,68,65,61,100,88,73,29.99,29.94,29.86,6,4,1,13,4,,0.00,6,Fog-Rain,252
2011-11-16,75,70,64,70,68,64,100,93,78,29.99,29.93,29.87,6,3,0,12,3,,0.00,5,Fog-Rain,253
2011-11-17,82,74,66,68,64,61,100,78,48,30.00,29.94,29.86,6,5,1,14,4,,0.00,5,,79
2011-11-18,80,72,64,70,64,61,100,83,51,30.01,29.96,29.89,6,5,0,14,6,,0.00,4,Fog-Rain-Thunderstorm,44
2011-11-19,78,70,62,68,64,59,100,88,65,30.03,29.98,29.93,6,4,0,9,4,,0.00,5,Fog-Rain,243
2011-11-20,78,70,62,70,65,61,100,86,57,30.03,29.97,29.91,6,6,0,10,5,,0.00,5,Fog,43
2011-11-21,80,73,66,68,63,61,94,76,57,30.03,29.97,29.91,6,6,6,13,6,,0.00,5,Fog-Rain,88
2011-11-22,82,75,68,70,63,59,83,73,45,30.05,29.98,29.92,6,6,6,14,6,,0.00,5,,130
2011-11-23,78,73,68,70,63,61,94,77,57,30.06,30.00,29.95,6,6,2,12,7,,0.00,4,Rain,101
2011-11-24,77,72,66,66,63,63,94,80,65,30.07,30.01,29.94,6,6,3,9,6,,0.00,5,Rain,99
2011-11-25,77,72,68,68,66,63,100,87,65,30.02,29.97,29.91,6,5,2,8,6,,0.00,6,Fog-Rain,180
2011-11-26,80,72,64,70,67,64,100,90,58,30.00,29.93,29.88,6,4,0,12,3,,0.00,5,Fog-Rain-Thunderstorm,266
2011-11-27,80,71,62,72,67,61,100,88,58,29.95,29.89,29.84,6,5,0,9,4,,0.00,4,Fog-Rain,269
2011-11-28,78,73,68,64,62,57,88,71,54,29.99,29.92,29.87,6,6,6,15,7,,0.00,4,Fog,98
2011-11-29,75,70,64,61,59,55,83,72,57,30.04,29.98,29.91,6,6,6,14,9,23,0.00,1,,103
2011-11-30,77,70,64,61,60,59,83,72,57,30.02,29.98,29.91,6,6,6,14,8,,0.00,2,,97